Location: La Pernelle
(49.6188°N, 1.2999°W)
Time: 12:06:21
(UTC+00:00)

Cosmos 2322 Rocket - Visible Passes

Search period start: 22 October 2021 00:00
Search period end: 01 November 2021 00:00
Orbit: 833 x 850 km, 71.0° (Epoch: 22 October)

Date Brightness Start Highest point End Pass type
(mag) Time Alt. Az. Time Alt. Az. Time Alt. Az.
22 Oct 4.7 02:00:32 16° NNE 02:00:54 16° NNE 02:04:24 10° ENE visible
22 Oct 2.7 03:42:27 21° NNW 03:46:13 58° ENE 03:51:48 10° SE visible
22 Oct 3.1 05:25:14 10° NW 05:29:54 27° WSW 05:34:35 10° SSW visible
22 Oct 2.3 18:36:20 10° S 18:41:43 50° ESE 18:47:06 10° NE visible
22 Oct 3.6 20:20:54 10° WSW 20:25:59 34° NW 20:28:57 21° N visible
22 Oct 5.1 22:10:06 10° NW 22:10:49 11° NW 22:10:49 11° NW visible
23 Oct 4.9 01:47:40 14° NE 01:47:40 14° NE 01:49:12 10° ENE visible
23 Oct 2.7 03:29:37 43° N 03:31:09 56° NE 03:36:43 10° SE visible
23 Oct 3.0 05:11:34 17° WNW 05:14:53 28° WSW 05:19:39 10° SSW visible
23 Oct 2.4 18:21:19 10° S 18:26:40 48° ESE 18:32:04 10° NE visible
23 Oct 3.6 20:05:47 10° WSW 20:10:54 35° NW 20:14:52 16° N visible
23 Oct 5.0 21:54:48 10° NW 21:56:43 12° NNW 21:56:43 12° NNW visible
24 Oct 2.9 03:16:56 49° E 03:16:56 49° E 03:21:38 10° SE visible
24 Oct 2.9 04:58:53 28° W 04:59:52 30° WSW 05:04:42 10° SSW visible
24 Oct 2.4 18:06:20 10° S 18:11:38 46° ESE 18:16:59 10° NE visible
24 Oct 3.5 19:50:39 10° WSW 19:55:49 37° NW 20:00:35 12° NNE visible
24 Oct 5.0 21:39:32 10° NW 21:41:39 12° NNW 21:42:25 12° NNW visible
25 Oct 4.0 03:04:17 24° ESE 03:04:17 24° ESE 03:06:32 10° SE visible
25 Oct 3.1 04:46:15 28° SW 04:46:15 28° SW 04:49:45 10° SSW visible
25 Oct 2.5 17:51:20 10° S 17:56:36 44° ESE 18:01:55 10° NE visible
25 Oct 3.5 19:35:32 10° WSW 19:40:44 38° NW 19:46:00 10° NNE visible
25 Oct 4.9 21:24:16 10° NW 21:26:32 12° NNW 21:27:58 11° N visible
26 Oct 4.0 04:33:33 16° SSW 04:33:33 16° SSW 04:34:47 10° SSW visible
26 Oct 2.6 17:36:20 10° S 17:41:34 42° ESE 17:46:50 10° NE visible
26 Oct 3.4 19:20:25 10° WSW 19:25:40 40° NW 19:30:58 10° NNE visible
26 Oct 4.9 21:09:00 10° NW 21:11:24 13° NNW 21:13:24 11° N visible
27 Oct 2.7 17:21:21 10° S 17:26:32 40° ESE 17:31:45 10° NE visible
27 Oct 3.4 19:05:18 10° WSW 19:10:35 41° NW 19:15:55 10° NNE visible
27 Oct 4.9 20:53:45 10° NW 20:56:17 13° NNW 20:58:46 10° N visible
28 Oct 3.3 18:50:11 10° WSW 18:55:30 43° NW 19:00:53 10° NNE visible
28 Oct 4.8 20:38:30 10° NW 20:41:10 13° NNW 20:43:50 10° N visible
29 Oct 3.2 18:35:04 10° SW 18:40:26 45° NW 18:45:51 10° NNE visible
29 Oct 4.8 20:23:16 10° WNW 20:26:02 14° NNW 20:28:50 10° N visible
30 Oct 3.2 18:19:58 10° SW 18:25:21 46° NW 18:30:48 10° NNE visible
30 Oct 4.8 20:08:02 10° WNW 20:10:55 14° NNW 20:13:50 10° N visible
31 Oct 3.1 18:04:52 10° SW 18:10:17 48° NW 18:15:46 10° NNE visible
31 Oct 4.7 19:52:48 10° WNW 19:55:48 14° NNW 19:58:50 10° N visible
